{"data":{"norad_id":62015,"intl_designator":"2024-213H","name":"STARLINK-11396 [DTC]","alt_names":[],"object_type":"PAYLOAD","status":"ACTIVE","operator":null,"country":"US","launch_date":"2024-11-18","launch_site_code":"AFWTR","launch_vehicle":null,"mission":null,"orbit_class":"UNKNOWN","rcs_meters":null,"size_class":null,"mass_kg":null,"dimensions":null,"purposes":["comms"],"wikipedia_slug":null,"has_3d_model":false,"image_url":null,"decayed_at":null,"tle_current":{"epoch":"2026-05-25T01:31:18.804576Z","epoch_age_seconds":65525,"freshness":"FRESH","line1":"1 62015U 24213H   26145.06341209  .00146375  00000+0  11910-2 0  9998","line2":"2 62015  53.1579  24.5371 0000383 124.9779 235.1275 15.69727612 86916","mean_motion":15.69727612,"eccentricity":3.83e-5,"inclination_deg":53.1579,"raan_deg":24.5371,"arg_perigee_deg":124.9779,"mean_anomaly_deg":235.1275,"bstar":0.001191,"rev_number":8691,"period_min":91.735660951092,"perigee_km":359.41829383713,"apogee_km":359.9344103399,"semimajor_km":6737.8133520885,"source":"CELESTRAK","updated_at":"2026-05-25T13:38:19.519850Z"}}}